When you browse on this site, cookies collect data to enhance your experience and personalize the content and advertising you see.
Visit our Privacy Policy to learn more. By continuing to use the site, you agree to this use of cookies and data.
  • Em Portugal
  • Lista de países
  • Para 7 dias
  • Temperatura da água
  • Mapas de satélite
  • Mapa do tempo
  • Widgets de tempo
  • user-avatar
    Iniciar Sessão

    Previsão horária em Banja Luka

    Hoje, 19 Novembro, Segunda-feira

    Tempo Temperatura Precipitação Vento Pressão Humidade
    00:00 0°C° 0 mm 1 m/s 712 mmHg 86%
    01:00 -1°C° 0 mm 0 m/s 711 mmHg 85%
    02:00 -1°C° 0 mm 0 m/s 711 mmHg 86%
    03:00 -1°C° 0 mm 0 m/s 711 mmHg 87%
    04:00 -2°C° 0 mm 0 m/s 711 mmHg 88%
    05:00 -2°C° 0 mm 0 m/s 711 mmHg 88%
    06:00 -2°C° 0 mm 0 m/s 711 mmHg 89%
    07:00 -2°C° 0 mm 0 m/s 711 mmHg 89%
    08:00 +1°C° 0 mm 1 m/s 711 mmHg 80%
    09:00 +2°C° 0 mm 1 m/s 711 mmHg 70%
    10:00 +4°C° 0 mm 1 m/s 712 mmHg 61%
    11:00 +5°C° 0 mm 1 m/s 712 mmHg 58%
    12:00 +6°C° 0 mm 1 m/s 712 mmHg 55%
    13:00 +6°C° 0 mm 1 m/s 712 mmHg 55%
    14:00 +5°C° 0 mm 1 m/s 712 mmHg 60%
    15:00 +4°C° 0 mm 1 m/s 712 mmHg 65%
    16:00 +3°C° 0 mm 1 m/s 712 mmHg 70%
    17:00 +3°C° 0.1 mm 1 m/s 711 mmHg 74%
    18:00 +2°C° 0.1 mm 1 m/s 711 mmHg 78%
    19:00 +2°C° 0.1 mm 1 m/s 711 mmHg 82%
    20:00 +2°C° 1.5 mm 1 m/s 711 mmHg 85%
    21:00 +1°C° 1.5 mm 2 m/s 710 mmHg 87%
    22:00 +1°C° 1.5 mm 2 m/s 710 mmHg 90%
    23:00 +1°C° 3.2 mm 2 m/s 710 mmHg 92%

    Amanhã, 20 Novembro, Terça-feira

    Tempo Temperatura Precipitação Vento Pressão Humidade
    00:00 +1°C° 3.2 mm 2 m/s 709 mmHg 94%
    01:00 +1°C° 3.2 mm 2 m/s 708 mmHg 96%
    02:00 +1°C° 2.5 mm 2 m/s 708 mmHg 96%
    03:00 +1°C° 2.5 mm 2 m/s 708 mmHg 97%
    04:00 +3°C° 2.5 mm 1 m/s 707 mmHg 97%
    05:00 +3°C° 2.1 mm 1 m/s 707 mmHg 97%
    06:00 +2°C° 2.1 mm 2 m/s 707 mmHg 97%
    07:00 +2°C° 2.1 mm 2 m/s 706 mmHg 97%
    08:00 +4°C° 0.8 mm 1 m/s 707 mmHg 97%
    09:00 +5°C° 0.8 mm 1 m/s 707 mmHg 97%
    10:00 +5°C° 0.8 mm 1 m/s 708 mmHg 97%
    11:00 +6°C° 0.1 mm 1 m/s 708 mmHg 97%
    12:00 +6°C° 0.1 mm 1 m/s 708 mmHg 96%
    13:00 +7°C° 0.1 mm 1 m/s 708 mmHg 96%
    14:00 +7°C° 0 mm 1 m/s 708 mmHg 97%
    15:00 +6°C° 0 mm 1 m/s 708 mmHg 97%
    16:00 +6°C° 0 mm 1 m/s 708 mmHg 98%
    17:00 +6°C° 0 mm 1 m/s 709 mmHg 98%
    18:00 +6°C° 0 mm 1 m/s 709 mmHg 98%
    19:00 +5°C° 0 mm 1 m/s 709 mmHg 98%
    20:00 +5°C° 0 mm 1 m/s 709 mmHg 98%
    21:00 +5°C° 0 mm 1 m/s 709 mmHg 98%
    22:00 +5°C° 0 mm 1 m/s 710 mmHg 98%
    23:00 +5°C° 0 mm 1 m/s 710 mmHg 98%

    Depois de amanhã, 21 Novembro, Quarta-feira

    Tempo Temperatura Precipitação Vento Pressão Humidade
    00:00 +5°C° 0 mm 1 m/s 710 mmHg 98%
    01:00 +4°C° 0 mm 0 m/s 710 mmHg 98%
    02:00 +4°C° 0 mm 0 m/s 710 mmHg 98%
    03:00 +4°C° 0 mm 0 m/s 710 mmHg 98%
    04:00 +4°C° 0 mm 0 m/s 710 mmHg 98%
    05:00 +4°C° 0 mm 0 m/s 711 mmHg 98%
    06:00 +4°C° 0 mm 0 m/s 711 mmHg 98%
    07:00 +5°C° 0 mm 1 m/s 711 mmHg 98%
    08:00 +5°C° 0 mm 0 m/s 712 mmHg 97%
    09:00 +5°C° 0 mm 0 m/s 712 mmHg 97%
    10:00 +6°C° 0 mm 0 m/s 713 mmHg 96%
    11:00 +8°C° 0 mm 1 m/s 713 mmHg 94%
    12:00 +8°C° 0 mm 1 m/s 713 mmHg 93%
    13:00 +9°C° 0 mm 1 m/s 713 mmHg 92%
    14:00 +8°C° 0 mm 1 m/s 713 mmHg 93%
    15:00 +8°C° 0 mm 1 m/s 713 mmHg 95%
    16:00 +7°C° 0 mm 1 m/s 713 mmHg 96%
    17:00 +7°C° 0 mm 1 m/s 714 mmHg 97%
    18:00 +6°C° 0 mm 0 m/s 714 mmHg 97%
    19:00 +5°C° 0 mm 0 m/s 714 mmHg 97%
    20:00 +5°C° 0 mm 0 m/s 715 mmHg 97%
    21:00 +5°C° 0 mm 0 m/s 715 mmHg 97%
    22:00 +5°C° 0 mm 0 m/s 715 mmHg 97%
    23:00 +5°C° 0 mm 0 m/s 715 mmHg 97%

    22 Novembro, Quinta-feira

    Tempo Temperatura Precipitação Vento Pressão Humidade
    00:00 +5°C° 0 mm 0 m/s 715 mmHg 97%
    01:00 +5°C° 0 mm 0 m/s 716 mmHg 97%
    02:00 +5°C° 0 mm 0 m/s 716 mmHg 97%
    03:00 +5°C° 0 mm 0 m/s 716 mmHg 97%
    04:00 +4°C° 0 mm 0 m/s 716 mmHg 97%
    05:00 +4°C° 0 mm 0 m/s 716 mmHg 97%
    06:00 +4°C° 0 mm 0 m/s 716 mmHg 97%
    07:00 +4°C° 0 mm 0 m/s 716 mmHg 97%
    08:00 +5°C° 0 mm 0 m/s 716 mmHg 95%
    09:00 +7°C° 0 mm 0 m/s 717 mmHg 93%
    10:00 +8°C° 0 mm 0 m/s 717 mmHg 91%
    11:00 +8°C° 0 mm 0 m/s 717 mmHg 89%
    12:00 +9°C° 0 mm 1 m/s 717 mmHg 88%
    13:00 +10°C° 0 mm 1 m/s 717 mmHg 87%
    14:00 +9°C° 0 mm 1 m/s 717 mmHg 90%
    15:00 +9°C° 0 mm 1 m/s 717 mmHg 92%
    16:00 +8°C° 0 mm 1 m/s 717 mmHg 94%
    17:00 +8°C° 0 mm 1 m/s 718 mmHg 95%
    18:00 +6°C° 0 mm 0 m/s 718 mmHg 96%
    19:00 +6°C° 0 mm 0 m/s 718 mmHg 97%
    20:00 +6°C° 0 mm 0 m/s 718 mmHg 97%
    21:00 +6°C° 0 mm 0 m/s 719 mmHg 97%
    22:00 +6°C° 0 mm 0 m/s 719 mmHg 97%
    23:00 +6°C° 0 mm 0 m/s 719 mmHg 97%

    23 Novembro, Sexta-feira

    Tempo Temperatura Precipitação Vento Pressão Humidade
    00:00 +6°C° 0 mm 0 m/s 719 mmHg 97%
    01:00 +6°C° 0 mm 0 m/s 719 mmHg 97%
    02:00 +6°C° 0 mm 0 m/s 720 mmHg 97%
    03:00 +5°C° 0 mm 0 m/s 720 mmHg 97%
    04:00 +5°C° 0 mm 0 m/s 720 mmHg 97%
    05:00 +5°C° 0 mm 0 m/s 720 mmHg 97%
    06:00 +5°C° 0 mm 0 m/s 720 mmHg 97%
    07:00 +5°C° 0 mm 0 m/s 721 mmHg 97%
    08:00 +6°C° 0 mm 0 m/s 721 mmHg 94%
    09:00 +7°C° 0 mm 0 m/s 721 mmHg 91%
    10:00 +8°C° 0 mm 0 m/s 722 mmHg 88%
    11:00 +8°C° 0 mm 0 m/s 722 mmHg 86%
    12:00 +9°C° 0 mm 0 m/s 722 mmHg 84%
    13:00 +9°C° 0 mm 0 m/s 721 mmHg 81%
    14:00 +9°C° 0 mm 0 m/s 721 mmHg 84%
    15:00 +8°C° 0 mm 0 m/s 721 mmHg 87%
    16:00 +8°C° 0 mm 1 m/s 721 mmHg 90%
    17:00 +8°C° 0 mm 1 m/s 721 mmHg 91%
    18:00 +7°C° 0 mm 1 m/s 721 mmHg 93%
    19:00 +6°C° 0 mm 1 m/s 721 mmHg 94%
    20:00 +6°C° 0 mm 1 m/s 721 mmHg 94%
    21:00 +6°C° 0 mm 1 m/s 721 mmHg 94%
    22:00 +6°C° 0 mm 1 m/s 721 mmHg 93%
    23:00 +5°C° 0 mm 1 m/s 721 mmHg 93%

    24 Novembro, Sábado

    Tempo Temperatura Precipitação Vento Pressão Humidade
    00:00 +5°C° 0 mm 1 m/s 721 mmHg 92%
    01:00 +5°C° 0 mm 1 m/s 720 mmHg 92%
    02:00 +5°C° 0 mm 1 m/s 720 mmHg 91%
    03:00 +5°C° 0 mm 1 m/s 719 mmHg 90%
    04:00 +5°C° 0 mm 1 m/s 719 mmHg 89%
    05:00 +5°C° 0 mm 1 m/s 719 mmHg 88%
    06:00 +5°C° 0 mm 1 m/s 719 mmHg 88%
    07:00 +5°C° 0 mm 1 m/s 718 mmHg 87%
    08:00 +6°C° 0 mm 2 m/s 719 mmHg 84%
    09:00 +8°C° 0 mm 2 m/s 719 mmHg 81%
    10:00 +9°C° 0 mm 2 m/s 719 mmHg 77%
    11:00 +10°C° 0 mm 2 m/s 718 mmHg 76%
    12:00 +12°C° 0 mm 2 m/s 718 mmHg 75%
    13:00 +13°C° 0 mm 2 m/s 717 mmHg 74%
    14:00 +12°C° 0 mm 2 m/s 717 mmHg 78%
    15:00 +10°C° 0 mm 2 m/s 716 mmHg 82%
    16:00 +9°C° 0 mm 2 m/s 716 mmHg 86%
    17:00 +9°C° 0 mm 2 m/s 715 mmHg 87%
    18:00 +9°C° 0 mm 3 m/s 715 mmHg 88%
    19:00 +8°C° 0 mm 3 m/s 715 mmHg 89%
    20:00 +9°C° 0 mm 3 m/s 715 mmHg 88%
    21:00 +9°C° 0 mm 3 m/s 715 mmHg 88%
    22:00 +9°C° 0 mm 3 m/s 715 mmHg 88%
    23:00 +9°C° 0.1 mm 3 m/s 714 mmHg 87%
    Mostrar mais